Location: Newark
(55.6749°N, 3.7770°W)
Time: 12:47:27
(UTC+00:00)

ISS - Visible Passes

Search period start: 14 December 2019 00:00
Search period end: 24 December 2019 00:00
Orbit: 411 x 421 km, 51.6° (Epoch: 15 December)

Date Brightness Start Highest point End Pass type
(mag) Time Alt. Az. Time Alt. Az. Time Alt. Az.
20 Dec 0.0 07:45:32 10° SSE 07:46:18 11° SE 07:47:03 10° SE visible
22 Dec -0.8 07:43:06 10° SSW 07:45:29 18° SSE 07:47:53 10° ESE visible
23 Dec -0.7 06:55:20 10° S 06:57:08 14° SSE 06:58:58 10° ESE visible
